Location: Newark
(53.3503°N, 9.6158°W)
Time: 22:43:38
(UTC+00:00)

OTV 5 (USA 277) - Visible Passes

Search period start: 17 October 2019 00:00
Search period end: 27 October 2019 00:00
Orbit: 310 x 324 km, 54.5° (Epoch: 08 October)

Date Brightness Start Highest point End Pass type
(mag) Time Alt. Az. Time Alt. Az. Time Alt. Az.
17 Oct ? 04:21:37 14° E 04:21:37 14° E 04:22:04 10° ESE visible
17 Oct ? 05:52:31 22° WSW 05:53:26 28° SSW 05:55:51 10° SSE visible
18 Oct ? 04:36:01 15° ESE 04:36:01 15° ESE 04:36:35 10° ESE visible
18 Oct ? 06:06:55 14° WSW 06:07:47 15° SW 06:09:30 10° S visible
19 Oct ? 04:50:31 13° SE 04:50:31 13° SE 04:50:56 10° SE visible
